This is the latest recevied weather packets stored in our database for station/object KD5BIG-13. If no packets are shown the sender has not sent any weather packets the latest 1 day(s).
| Time | Temp. | Humidity | Pressure | Rain* | Wind** | Luminosity | Snow |
|---|---|---|---|---|---|---|---|
| 1778073828 | 23.33° C | 93% | 1016.4 hPa | - | - | 48 W/m² | - |
| 1778073222 | 22.78° C | 94% | 1016.3 hPa | - | - | 71 W/m² | - |
| 1778071710 | 22.78° C | 94% | 1015.9 hPa | - | - | 23 W/m² | - |
| 1778071104 | 22.22° C | 94% | 1015.8 hPa | - | - | 19 W/m² | - |
| 1778070196 | 22.22° C | 94% | 1015.7 hPa | - | - | 28 W/m² | - |
| 1778069591 | 22.22° C | 94% | 1015.4 hPa | - | - | 26 W/m² | - |
| 1778068986 | 22.22° C | 94% | 1015.4 hPa | - | - | 15 W/m² | - |
| 1778067475 | 22.22° C | 94% | 1015 hPa | - | - | 4 W/m² | - |
| 1778066868 | 22.22° C | 94% | 1014.7 hPa | - | - | 2 W/m² | - |
| 1778066566 | 22.22° C | 93% | 1014.7 hPa | - | - | 3 W/m² | - |
| 1778066263 | 22.22° C | 93% | 1014.9 hPa | - | - | 1 W/m² | - |
| 1778064749 | 22.22° C | 93% | 1014.5 hPa | - | - | 0 W/m² | - |
| 1778064447 | 22.22° C | 93% | 1014.5 hPa | - | - | 0 W/m² | - |
| 1778064144 | 22.22° C | 93% | 1014.4 hPa | - | - | 0 W/m² | - |
| 1778063538 | 22.22° C | 93% | 1014.3 hPa | - | - | 0 W/m² | - |
| 1778063236 | 22.22° C | 93% | 1014.3 hPa | - | - | 0 W/m² | - |
| 1778062934 | 22.22° C | 93% | 1014.4 hPa | - | - | 0 W/m² | - |
| 1778062327 | 21.67° C | 93% | 1014.4 hPa | - | - | 0 W/m² | - |
| 1778062025 | 22.22° C | 92% | 1014.2 hPa | - | - | 0 W/m² | - |
| 1778061723 | 22.22° C | 92% | 1014.3 hPa | - | - | 0 W/m² | - |
| 1778061421 | 22.22° C | 92% | 1014.4 hPa | - | - | 0 W/m² | - |
| 1778060815 | 22.22° C | 91% | 1014.3 hPa | - | - | 0 W/m² | - |
| 1778059908 | 22.22° C | 90% | 1014.4 hPa | - | - | 0 W/m² | - |
| 1778058698 | 22.78° C | 89% | 1014.8 hPa | - | - | 0 W/m² | - |
| 1778058396 | 22.78° C | 88% | 1014.8 hPa | - | - | 0 W/m² | - |
* Rain since midnight (hover to see other rain measurements)
** Current wind speed in m/s (hover to see current wind gust speed)